星链-5571 (STARLINK-5571 )

导读

STARLINK-5571是美国SpaceX公司星链(Starlink)星座的组网卫星,于2023年1月26日发射升空,服务于全球卫星互联网项目。它依托星链技术升级,搭载星间激光链路,可实现25Gbps高速互联,配合地面终端能提供低时延宽带服务,助力偏远地区网络覆盖,支撑全球高速互联网接入布局。

Basic Information
目录编号:
55380
目录名称:
STARLINK-5571
国际标识:
2023-013BB
轨道中心:
EARTH
卫星名称:
星链-5571
卫星全名:
星链-5571 (STARLINK-5571 )
卫星状态:
在轨 (已飞行1324 天)
发射日期:
2023-01-26 UTC
国别 :
美国 (US)
星等 :
--
This satellite is enrolled in the Space Conjunction Data Service (SCDS) and the current flight risk assessment level is: High Risk
Orbit Information
数据来源 国际轨道数据 AOE轨道数据
星历时间 2026-09-11T14:19:48+0800
14小时前
查看轨道信息
2026-09-10T08:00:00+0800
1天前
查看轨道信息
半长轴 6861.202km 6861.222km
偏心率 0.0000858 0.000129
轨道倾角 43.002° 43.002°
近地点辐角 263.618° 304.202°
升交点赤经 339.473° 346.614°
平近点角 96.457° 297.966°
近地点 482.476km 482.199km
远地点 483.654km 483.971km
周期 94.267分钟 94.267分钟
每日圈数 15.275749 15.275683
Detailed Information
固有亮度:
5
最大亮度:
2.5
卫星平台:
Starlink v1.5
覆盖范围:
全球
运营商:
太空探索技术公司
运营商所在国:
美国
制造商(研发单位):
太空探索技术公司
制造商所在国:
美国
使用方式:
暂无
Satellite Introduction
星链(Starlink)计划是由太空探索技术公司(SpaceX)提出的一个巨型低轨卫星互联网星座项目,计划在2019年至2024年间在太空搭建由约1.2万颗卫星组成的“星链”网络,其中1584颗将部署在地球上空550千米处的近地轨道,并从2020年开始工作。该卫星仍在工作。
2D Orbit Map
3D Orbit Map
Orbit Altitude Analysis Chart
Orbit Inclination Analysis Chart
Orbit Comprehensive Analysis Chart
View Comprehensive Chart
Conjunction Data List
Event ID Objects TCA Miss Dist (km) Collision Risk Probability Collision Risk Index (CRI) Action
CDM_260912-092805-538006-649722
2026-09-12T
09:28:10+0000
0.173 km
中距离
6.010541E-4 高风险 0.91
CDM_260912-132905-538006-377022
2026-09-12T
13:29:48+0000
0.379 km
远距离
2.566303E-4 高风险 0.83
CDM_260913-011505-538006-377022
2026-09-13T
01:15:57+0000
0.820 km
远距离
3.382478E-5 中风险 0.66
CDM_260912-234105-538006-377022
2026-09-12T
23:41:47+0000
2.150 km
极远距离
1.621683E-6 低风险 0.39
CDM_260912-115505-538006-377022
2026-09-12T
11:55:39+0000
2.404 km
极远距离
1.29365E-6 低风险 0.37
CDM_260912-053205-538006-649722
2026-09-12T
05:32:47+0000
2.027 km
极远距离
1.212432E-6 低风险 0.37
CDM_260912-150305-538006-377021
2026-09-12T
15:03:57+0000
2.600 km
极远距离
1.131362E-6 低风险 0.36
CDM_260912-070605-538006-649721
2026-09-12T
07:06:56+0000
2.452 km
极远距离
8.33714E-7 极低风险 0.33
Miss Distance Evolution Trend with All Objects
Collision Probability Evolution Trend with All Objects